IRNSS-1C

Last updated on Jan. 29, 2020, 4:37 a.m. UTC

1 40269U 14061A   20028.82755046 -.00000162  00000-0  00000-0 0  9992
2 40269   1.8633 189.0111 0018557  13.6907 305.7369  1.00269743 19305
UTC
Height (km)
Latitude
Longitude
Inclination
Orbital Period
UTC large
Height (km)
Speed (km/s)
/
Latitude / Longitude
Inclination (degrees)
Orbital Period (minutes)
Azimuth
Elevation
Range (km)
Doppler Factor
iOS Compass Heading
iOS Angle

Next 30 passes for location: Hong Kong

Rise time Rise Azimuth (degrees) Set time Set Azimuth (degrees) Duration Max altitude (degrees)

No matching passes for this satellites